[[{"header":{"parameterUnit":"m.s-1","parameterCategory":1,"la1":30.2991,"la2":30.254,"lo1":-89.0895,"lo2":-89.0444,"dy":0.0017,"dx":0.0017,"nx":28,"ny":28,"refTime":"2025-03-12T09:00:00:Z","depth":0,"parameterNumber":2,"parameterNumberName":"U-component_of_WINDS"},"data":[0,0,0,0,0,0,0,0,0,0,0,0,0,0,0,0,0,0,0,0,0,0,0,0,0,0,0,0,0,0,0,0,0,0,0,0,0,0,0,0,0,0,0,0,0,0,0,0,0,0,0,0,0,0,0,0,0,0,3.1419,3.1421,0,3.1621,3.1624,3.1626,3.1635,3.1632,3.163,3.1628,3.1839,3.1846,3.1854,0,0,0,0,0,0,0,0,0,0,0,0,0,3.1041,3.1048,3.1419,3.1421,3.1424,3.1621,3.1624,3.1627,3.1635,3.1632,3.1629,3.1627,3.1836,3.1845,3.1855,0,0,0,0,0,0,0,0,0,0,0,0,0,3.1221,3.105,3.1418,3.1452,3.1457,3.162,3.1624,3.1627,3.1636,3.1632,3.1629,3.1625,3.1833,3.1844,3.1856,3.2001,0,0,3.1892,3.1897,0,0,0,0,0,0,0,0,3.1211,3.1235,3.1444,3.145,3.1456,3.1599,3.1568,3.1753,3.1637,3.1568,3.1628,3.1623,3.1762,3.1779,3.1825,3.2011,3.202,3.1893,3.19,3.1905,3.1909,0,0,0,0,0,0,0,3.1198,3.1226,3.1499,3.1447,3.1454,3.1457,3.1479,3.1603,3.1683,3.1574,3.1575,3.1598,3.1764,3.1814,3.183,3.2023,3.1893,3.1903,3.1911,3.1915,3.2337,3.2341,0,0,0,0,0,0,3.1179,3.1216,3.1492,3.1505,3.1322,3.1467,3.1491,3.1557,3.1681,3.1697,3.1601,3.1598,3.1796,3.1817,3.1838,3.2015,3.1905,3.1916,3.1923,3.2333,3.2338,3.2342,0,0,0,0,0,0,3.1171,3.1203,3.1484,3.1361,3.1397,3.1477,3.1551,3.1563,3.1612,3.1702,3.1717,3.1637,3.1794,3.1821,3.196,3.2022,3.1922,3.1932,3.2328,3.2335,3.234,3.2371,0,0,0,0,0,0,3.116,3.12,3.1256,3.1362,3.1403,3.1602,3.1555,3.1569,3.1632,3.163,3.174,3.1755,3.1793,3.1942,3.1972,3.2037,3.1942,3.2323,3.2331,3.2338,3.2364,3.2377,3.2388,0,0,0,0,0,3.1146,3.1257,3.1258,3.1292,3.1474,3.1606,3.163,3.167,3.1637,3.1694,3.1752,3.1751,3.2011,3.1956,3.199,3.2059,3.2319,3.2329,3.2338,3.2359,3.2375,3.2388,0,0,0,0,0,0,3.1158,3.1272,3.1274,3.1423,3.1504,3.1607,3.1679,3.1686,3.1779,3.1773,3.1821,3.1846,3.1983,3.2036,3.1973,3.2206,3.2161,3.2178,3.2166,3.2182,3.2193,3.2177,3.1951,0,0,0,0,0,3.1177,3.1274,3.1369,3.1491,3.1531,3.1598,3.1657,3.1682,3.1768,3.1803,3.1871,3.1957,3.2057,3.2123,3.2221,3.2372,3.2396,3.2437,3.2448,3.2458,3.2471,3.2554,3.2573,3.2373,3.2373,3.2373,0,0,3.1219,3.1293,3.1352,3.1495,3.1561,3.166,3.1627,3.1734,3.1809,3.182,3.1954,3.2007,3.2106,3.2251,3.2319,3.2299,3.2532,3.247,3.2476,3.2485,3.2566,3.2585,3.2601,3.2379,3.2378,3.2377,0,0,3.1346,3.1412,3.152,3.1586,3.1686,3.173,3.1756,3.1858,3.1893,3.2029,3.2039,3.2129,3.2302,3.2371,3.2428,3.2581,3.2584,3.2612,3.2673,3.2753,3.2769,3.2783,3.2836,3.2855,3.2625,3.2625,3.2625,0,3.1385,3.1534,3.1575,3.1682,3.1744,3.1758,3.1868,3.1931,3.2058,3.2101,3.2077,3.2293,3.2361,3.2522,3.2559,3.2606,3.2637,3.2599,3.2763,3.2778,3.2792,3.2843,3.2863,3.2627,3.2627,3.2627,3.2627,0,3.1577,3.1681,3.1757,3.1877,3.1949,3.2056,3.2114,3.2181,3.2199,3.2246,3.2383,3.2465,3.2578,3.2619,3.2639,3.2783,3.2767,3.2753,3.2709,3.2813,3.2861,3.2882,3.2631,3.263,3.2629,3.2629,0,0,3.1716,3.1858,3.1885,3.1939,3.205,3.2131,3.224,3.235,3.2407,3.2494,3.2586,3.2732,3.2719,3.2784,3.2812,3.2883,3.2997,3.286,3.2863,3.2881,3.316,3.3169,3.3191,3.3,3.3004,3.3007,3.3151,0,3.1854,3.2046,3.2085,3.2252,3.2347,3.2362,3.2456,3.2535,3.2581,3.267,3.2722,3.2824,3.2799,3.2839,3.291,3.2967,3.3053,3.2958,3.3086,3.309,3.3059,3.3217,3.3227,3.3359,3.317,3.3174,3.3176,0,3.204,3.213,3.2305,3.2403,3.2445,3.2529,3.2632,3.2717,3.2807,3.2835,3.2908,3.2928,3.3042,3.2993,3.315,3.3085,3.314,3.3176,3.3182,3.3194,3.3138,3.3232,3.3402,3.3421,3.3207,3.3205,3.3202,0,3.2122,3.2288,3.2414,3.246,3.2577,3.2636,3.2688,3.2774,3.2837,3.2928,3.297,3.3074,3.313,3.321,3.3258,3.3218,3.3411,3.3367,3.3438,3.3437,3.3477,3.3474,3.3657,3.3515,3.3514,3.3514,3.3514,0,3.2271,3.2377,3.2452,3.2529,3.2649,3.2694,3.2811,3.2863,3.2939,3.3027,3.3047,3.3129,3.3187,3.3278,3.3316,3.344,3.3466,3.3492,3.3501,3.349,3.3486,3.3525,3.3517,3.3519,3.3518,3.3517,3.3516,0,3.2382,3.2436,3.2574,3.2673,3.2701,3.2785,3.287,3.2946,3.2992,3.3103,3.3132,3.3206,3.3313,3.3369,3.3504,3.3529,3.3668,3.3672,3.3637,3.364,3.3708,3.37,3.3922,3.3953,3.3791,3.3793,3.3794,0,3.2473,3.2554,3.2662,3.2722,3.2774,3.287,3.2935,3.2983,3.3049,3.3157,3.322,3.3328,3.3417,3.3588,3.3654,3.3758,3.3763,3.3834,3.3779,3.3765,3.3763,3.3756,3.3764,3.3843,3.3845,3.3846,3.3847,0,3.2627,3.265,3.2741,3.2842,3.2918,3.3,3.3081,3.3129,3.319,3.3263,3.3373,3.3442,3.3579,3.3686,3.3794,3.3848,3.3858,3.3864,3.3885,3.3874,3.385,3.3862,3.3662,3.3858,3.3857,3.3856,3.3856,3.3855,3.273,3.2803,3.289,3.2991,3.3056,3.3131,3.3207,3.3262,3.3354,3.3468,3.3491,3.3607,3.3694,3.384,3.3897,3.3989,3.3974,3.4006,3.4014,3.4021,3.4023,3.3836,3.4009,3.4009,3.4009,3.4009,3.4008,0,3.2884,3.294,3.3033,3.3145,3.3224,3.3225,3.3315,3.3381,3.3482,3.3563,3.365,3.3775,3.3879,3.3953,3.4059,3.4118,3.4125,3.4144,3.4139,3.4151,3.4031,3.4001,3.4136,3.4136,3.4136,3.4136,3.4136,3.4136,3.2974,3.3096,3.3129,3.3285,3.3341,3.3453,3.3504,3.3573,3.3637,3.3776,3.3862,3.3909,3.3987,3.4098,3.4194,3.4213,3.425,3.4269,3.4288,3.4174,3.416,3.4147,3.4119,3.4277,3.4277,3.4401,3.4402,3.4403]},{"header":{"parameterUnit":"m.s-1","parameterCategory":1,"la1":30.2991,"la2":30.254,"lo1":-89.0895,"lo2":-89.0444,"dy":0.0017,"dx":0.0017,"nx":28,"ny":28,"refTime":"2025-03-12T09:00:00:Z","depth":0,"parameterNumber":3,"parameterNumberName":"V-component_of_WINDS"},"data":[0,0,0,0,0,0,0,0,0,0,0,0,0,0,0,0,0,0,0,0,0,0,0,0,0,0,0,0,0,0,0,0,0,0,0,0,0,0,0,0,0,0,0,0,0,0,0,0,0,0,0,0,0,0,0,0,0,0,0.7947,0.7947,0,0.7996,0.7996,0.7997,0.7985,0.7984,0.7983,0.7982,0.8036,0.8038,0.804,0,0,0,0,0,0,0,0,0,0,0,0,0,0.7844,0.7846,0.7947,0.7947,0.7948,0.7996,0.7996,0.7997,0.7985,0.7984,0.7983,0.7982,0.8035,0.8038,0.8041,0,0,0,0,0,0,0,0,0,0,0,0,0,0.7891,0.7847,0.7946,0.7947,0.7948,0.7996,0.7996,0.7997,0.7985,0.7984,0.7982,0.7981,0.8034,0.8037,0.8041,0.8092,0,0,0.8052,0.8053,0,0,0,0,0,0,0,0,0.7888,0.7895,0.7947,0.7947,0.7948,0.7983,0.798,0.8029,0.7986,0.7971,0.7982,0.798,0.8019,0.8024,0.8037,0.8094,0.8096,0.8052,0.8054,0.8056,0.8056,0,0,0,0,0,0,0,0.7885,0.7892,0.7966,0.7947,0.7948,0.7946,0.7951,0.7989,0.8003,0.7972,0.7972,0.7977,0.802,0.8033,0.8038,0.8097,0.8052,0.8055,0.8057,0.8058,0.8198,0.82,0,0,0,0,0,0,0.7881,0.789,0.7965,0.7968,0.7914,0.7949,0.7955,0.7973,0.8003,0.8006,0.7979,0.7977,0.8028,0.8034,0.804,0.8101,0.8055,0.8059,0.8061,0.8197,0.8199,0.82,0,0,0,0,0,0,0.7879,0.7888,0.7963,0.7928,0.7938,0.7952,0.7973,0.7975,0.7988,0.8007,0.801,0.799,0.8027,0.8035,0.8078,0.8102,0.806,0.8064,0.8195,0.8197,0.8199,0.8223,0,0,0,0,0,0,0.7876,0.7887,0.7906,0.7929,0.794,0.8,0.7975,0.7977,0.7994,0.7992,0.8018,0.8022,0.8027,0.8073,0.8082,0.8106,0.8066,0.8193,0.8196,0.8199,0.8221,0.8226,0.8231,0,0,0,0,0,0.7872,0.7911,0.7907,0.7916,0.7963,0.8001,0.8008,0.8012,0.7996,0.8016,0.8027,0.8021,0.8098,0.8078,0.8087,0.8113,0.8191,0.8195,0.8198,0.8218,0.8225,0.8231,0,0,0,0,0,0,0.7892,0.7914,0.791,0.7957,0.7977,0.7999,0.8024,0.8019,0.8045,0.8042,0.8047,0.8053,0.8097,0.811,0.8087,0.8164,0.8143,0.8148,0.8154,0.8161,0.8166,0.8163,0.8069,0,0,0,0,0,0.7901,0.7929,0.7948,0.7988,0.7998,0.8009,0.8026,0.8027,0.8049,0.8057,0.8073,0.8094,0.8124,0.8143,0.8171,0.8222,0.8228,0.8245,0.825,0.8254,0.8259,0.8287,0.8295,0.8212,0.8212,0.8212,0,0,0.7922,0.7938,0.7956,0.7993,0.8008,0.8038,0.8017,0.8049,0.8071,0.8063,0.8105,0.8116,0.8141,0.8189,0.821,0.82,0.8283,0.8259,0.8262,0.8265,0.8292,0.83,0.8306,0.8215,0.8214,0.8214,0,0,0.7975,0.799,0.8025,0.8041,0.8064,0.8071,0.8079,0.8102,0.8109,0.8151,0.8145,0.8171,0.8222,0.8239,0.8255,0.8313,0.8308,0.8322,0.8351,0.8378,0.8384,0.839,0.8411,0.8419,0.8327,0.8327,0.8327,0,0.7999,0.8042,0.8044,0.8076,0.8093,0.8085,0.8121,0.8136,0.8168,0.818,0.8168,0.823,0.8247,0.8298,0.8312,0.8325,0.8335,0.832,0.8383,0.8389,0.8394,0.8415,0.8423,0.8329,0.8329,0.8329,0.8328,0,0.807,0.81,0.8125,0.8155,0.8174,0.8208,0.8216,0.8235,0.8235,0.8243,0.8286,0.8304,0.8336,0.8348,0.8348,0.8399,0.8392,0.8382,0.8361,0.8404,0.8423,0.8431,0.8331,0.8331,0.833,0.833,0,0,0.8138,0.8167,0.8176,0.8189,0.8214,0.8238,0.8271,0.8301,0.8318,0.834,0.8369,0.8411,0.84,0.8418,0.842,0.8444,0.8489,0.843,0.8431,0.8441,0.8547,0.8555,0.8564,0.8485,0.8487,0.8488,0.8545,0,0.8193,0.8251,0.8254,0.8307,0.8335,0.8328,0.8357,0.8376,0.8384,0.841,0.8419,0.8449,0.8433,0.8444,0.8467,0.8479,0.851,0.8474,0.8513,0.8514,0.8507,0.8574,0.8583,0.8636,0.8552,0.8554,0.8554,0,0.8266,0.8289,0.8345,0.8365,0.8377,0.8403,0.843,0.8454,0.8475,0.848,0.8499,0.8497,0.8532,0.8509,0.8558,0.8533,0.8549,0.8557,0.8559,0.8563,0.8537,0.8581,0.8653,0.8661,0.8566,0.8565,0.8564,0,0.831,0.8355,0.8394,0.8406,0.843,0.8449,0.846,0.8479,0.8497,0.8521,0.8532,0.856,0.8575,0.8597,0.8603,0.8586,0.8652,0.8629,0.8657,0.8657,0.8672,0.8672,0.8749,0.8682,0.8681,0.8681,0.8681,0,0.8372,0.8407,0.8414,0.8439,0.8477,0.8479,0.8518,0.8528,0.8545,0.8572,0.8567,0.8592,0.8598,0.8625,0.863,0.8669,0.8676,0.8681,0.8683,0.8682,0.8682,0.8693,0.869,0.8683,0.8683,0.8683,0.8682,0,0.8429,0.8435,0.8477,0.8496,0.8502,0.8529,0.8546,0.857,0.8577,0.8611,0.8619,0.8631,0.8661,0.8669,0.8706,0.871,0.8757,0.8754,0.8749,0.8749,0.8777,0.8774,0.8865,0.8877,0.8801,0.8802,0.8803,0,0.8468,0.8494,0.8516,0.8533,0.8544,0.8572,0.8589,0.8592,0.861,0.8636,0.8657,0.8686,0.8711,0.876,0.8773,0.8801,0.88,0.8829,0.8804,0.8803,0.8801,0.8799,0.8802,0.8834,0.8835,0.8836,0.8836,0,0.8538,0.8539,0.8564,0.8589,0.861,0.863,0.865,0.8664,0.867,0.8691,0.8722,0.8741,0.8778,0.8808,0.8836,0.8848,0.8844,0.8844,0.8852,0.8852,0.8849,0.8851,0.8763,0.8842,0.8842,0.8841,0.8841,0.8841,0.8587,0.861,0.8628,0.8656,0.867,0.8689,0.8712,0.8721,0.8747,0.8776,0.8777,0.881,0.8831,0.8868,0.8882,0.8909,0.89,0.8911,0.8914,0.8917,0.892,0.8844,0.8914,0.8914,0.8913,0.8913,0.8913,0,0.8656,0.8668,0.8693,0.872,0.8741,0.8733,0.8755,0.8774,0.8803,0.8822,0.8845,0.888,0.8909,0.8923,0.8952,0.8971,0.8969,0.8978,0.8977,0.898,0.8926,0.8916,0.8979,0.8979,0.8979,0.8979,0.8979,0.8979,0.8695,0.8733,0.8737,0.8782,0.8794,0.8826,0.8838,0.8855,0.887,0.8909,0.8933,0.8941,0.8958,0.8988,0.9014,0.9018,0.9029,0.9039,0.9042,0.8991,0.8984,0.8978,0.8969,0.9041,0.9041,0.9094,0.9094,0.9094]}]]